Regional Weather Roundup
Issued by NWS San Angelo, TX

Home | Current Version | Previous Version | Text Only | Print | Product List | Glossary On
Versions: 1 2 3 4 5 6 7 8 9 10 11 12 13 14 15 16 17 18 19 20 21 22 23 24 25 26 27 28 29 30 31 32 33 34 35 36 37 38 39 40 41 42 43 44 45 46 47 48 49 50
980
ASUS44 KSJT 160602
RWRSJT
WEST CENTRAL TEXAS REGIONAL WEATHER ROUNDUP
NATIONAL WEATHER SERVICE SAN ANGELO TX
1200 AM CST SAT DEC 16 2017

NOTE: "FAIR" INDICATES FEW OR NO CLOUDS BELOW 12,000 FEET WITH NO
SIGNIFICANT WEATHER AND/OR OBSTRUCTIONS TO VISIBILITY.

TXZ049-054-064>066-071>073-076>078-098-099-113-114-127-128-139-140-
154-155-168>170-160700
...LOCATIONS ACROSS WEST CENTRAL TEXAS...

CITY           SKY/WX    TMP DP  RH WIND       PRES   REMARKS
SAN ANGELO     CLOUDY    34  22  61 W5        30.19F WCI  30
ABILENE        CLOUDY    34  22  61 S8        30.16F WCI  27
DYESS AFB      CLOUDY    37  22  55 S9        30.15F WCI  30
JUNCTION       CLOUDY    34  28  79 W3        30.21F
SWEETWATER     CLEAR     41  22  46 S12       30.17F WCI  34
BROWNWOOD      CLOUDY    28  18  64 CALM      30.20F
COLEMAN        CLOUDY    36  22  56 SW6       30.18F WCI  31
SONORA         CLOUDY    30  25  80 CALM      30.25F
OZONA          FAIR      30  23  74 CALM      30.23S
BRADY          NOT AVBL
$$

TEXAS PANHANDLE/OKLAHOMA PANHANDLE

CITY           SKY/WX    TMP DP  RH WIND       PRES   REMARKS
AMARILLO       CLEAR     36  22  56 SW16      30.01S WCI  26
BORGER         CLOUDY    42  21  43 SW10      30.00S WCI  36
CANADIAN       CLEAR     33  22  65 SW3       29.98F
DALHART        CLOUDY    25  18  74 S10       29.96F WCI  15
DUMAS          CLOUDY    35  19  54 SW12      29.97S WCI  26
GUYMON         NOT AVBL
HEREFORD       CLOUDY    37  24  60 MISG      30.04S
PAMPA          CLOUDY    40  22  48 SW15      30.00S WCI  32
PERRYTON       CLOUDY    38  22  52 SW13      29.94F WCI  30
$$

SOUTHERN PANHANDLE/SOUTH PLAINS/ROLLING PLAINS

CITY           SKY/WX    TMP DP  RH WIND       PRES   REMARKS
LUBBOCK        CLOUDY    38  24  57 SW13      30.07F WCI  30
SNYDER         CLEAR     34  22  62 S7        30.14F WCI  28
CHILDRESS      CLEAR     38  23  55 SW12      30.07F WCI  30
SEMINOLE       CLOUDY    32  25  74 SW7       30.13F WCI  26
$$

PERMIAN BASIN

CITY           SKY/WX    TMP DP  RH WIND       PRES   REMARKS
MIDLAND        CLOUDY    40  25  55 S9        30.15F WCI  34
ODESSA         CLOUDY    36  26  67 S9        30.15F WCI  29
WINK           CLEAR     35  26  69 SE9       30.13F WCI  28
$$

FAR WEST/SOUTHWEST MOUNTAINS/TRANS PECOS

CITY           SKY/WX    TMP DP  RH WIND       PRES   REMARKS
ALPINE         CLEAR     32  23  70 SW9       30.22F WCI  24
DRYDEN           N/A     38  30  73 SW7       30.20S WCI  33
EL PASO        CLEAR     38  24  57 CALM      30.14F
FORT STOCKTON  CLEAR     37  27  67 S9        30.16F WCI  30
GUADALUPE PASS CLOUDY    35  22  58 SW26      30.12F WCI  22
MARFA          NOT AVBL
PECOS          CLEAR     29  26  87 W3        30.15F
$$

DALLAS/FORT WORTH METROPLEX

CITY           SKY/WX    TMP DP  RH WIND       PRES   REMARKS
DFW AIRPORT    CLOUDY    40  26  57 S10       30.17F WCI  33
FTW MEACHAM    CLOUDY    42  25  50 SE3       30.18F
DAL-EXECUTIVE  CLOUDY    43  25  49 S7        30.19F WCI  39
GRAND PRAIRIE  CLOUDY    40  24  52 S8        30.21F WCI  35
ADDISON        CLEAR     42  26  53 S6        30.20F WCI  38
MESQUITE       CLOUDY    32  25  74 S5        30.21F WCI  28
LANCASTER      CLOUDY    33  22  64 CALM      30.22F
$$

NORTH CENTRAL TEXAS

CITY           SKY/WX    TMP DP  RH WIND       PRES   REMARKS
SHRMAN/DENISON NOT AVBL
GAINESVILLE    CLOUDY    35  21  57 CALM      30.18F
BRIDGEPORT     CLOUDY    44  22  42 SW10      30.18F WCI  38
DENTON         CLOUDY    37  23  56 S3        30.17F
WAXAHACHIE     CLOUDY    37  26  63 S3        30.22F
GRANBURY       CLOUDY    38  22  52 CALM      30.21F
$$

WESTERN NORTH TEXAS

CITY           SKY/WX    TMP DP  RH WIND       PRES   REMARKS
WICHITA FALLS  CLEAR     40  23  50 S14       30.12F WCI  32
VERNON         CLEAR     40  19  43 S10       30.11S WCI  33
BRECKENRIDGE   CLOUDY    39  23  53 S9        30.16F WCI  33
COMANCHE       CLOUDY    41  26  55 SW7       30.19F WCI  36
$$

CENTRAL AND SOUTH CENTRAL TEXAS

CITY           SKY/WX    TMP DP  RH WIND       PRES   REMARKS
AUSTIN/BERGSTM CLOUDY    37  34  89 CALM      30.25F
WACO           CLOUDY    33  26  75 SW7       30.23F WCI  27
HILLSBORO      CLOUDY    38  26  61 CALM      30.21F
TEMPLE         CLOUDY    40  27  59 S7        30.24F WCI  35
KILLEEN-GRAY   CLOUDY    40  26  58 S7        30.21F WCI  35
FORT HOOD      PTCLDY    40  27  59 CALM      30.18F
GEORGETOWN     MOCLDY    38  30  73 CALM      30.25
LAGO VISTA     FAIR      47  33  58 MISG      30.22F
SAN MARCOS     PTCLDY    43  34  70 SW6       30.27S WCI  39
NEW BRAUNFELS  PTCLDY    41  33  73 S7        30.25S WCI  36
RANDOLPH AFB   PTCLDY    46  34  63 S5        30.26S
SAN ANTONIO    PTCLDY    47  35  63 S7        30.26S
STINSON        PTCLDY    45  36  70 CALM      30.25F
PLEASANTON     NOT AVBL
LA GRANGE      MOCLDY    47  37  65 CALM      30.25S
GIDDINGS       PTCLDY    42  36  80 CALM      30.26F
$$

EAST TEXAS

CITY           SKY/WX    TMP DP  RH WIND       PRES   REMARKS
PARIS          CLOUDY    34  26  72 CALM      30.20F
CLARKSVILLE    NOT AVBL
TYLER          CLOUDY    32  29  88 S6        30.22F WCI  26
LONGVIEW       CLOUDY    32  30  92 S6        30.23F WCI  26
PALESTINE      PTCLDY    33  31  90 CALM      30.25F
NACOGDOCHES    CLEAR     30  28  92 CALM      30.26F
$$

TEXAS HILL COUNTRY AND EDWARDS PLATEAU

CITY           SKY/WX    TMP DP  RH WIND       PRES   REMARKS
LLANO          MOCLDY    34  30  86 CALM      30.25F
HORSESHOE BAY  FAIR      40  32  74 CALM      30.22F
KERRVILLE      PTCLDY    36  32  84 CALM      30.23S
FREDERICKSBRG  PTCLDY    34  29  82 CALM      30.22F
ROCKSPRINGS    NOT AVBL
HONDO          CLOUDY    43  35  73 SW3       30.26S
UVALDE         PTCLDY    37  34  90 SE3       30.27S
DEL RIO        PTCLDY    42  36  79 E3        30.24R
$$

SOUTHEAST TEXAS

CITY           SKY/WX    TMP DP  RH WIND       PRES   REMARKS
COLLEGE STN    PTCLDY    43  35  73 CALM      30.26F
CALDWELL       NOT AVBL
CROCKETT       NOT AVBL
BRENHAM        PTCLDY    46  38  74 CALM      30.26F
HUNTSVILLE     CLOUDY    44  37  76 S6        30.26F
CONROE         CLOUDY    38  38 100 CALM      30.27F
HOUSTON BUSH   MOCLDY    43  39  86 CALM      30.27F
HOUSTON HOBBY  MOCLDY    43  40  89 CALM      30.26F
PERLAND        PTCLDY    43  41  93 CALM      30.29F
WHARTON        CLOUDY    42  38  87 CALM      30.28F
$$

THE UPPER TEXAS COAST

CITY           SKY/WX    TMP DP  RH WIND       PRES   REMARKS
ORANGE         CLOUDY    42  41  99 CALM      30.29F
PORT ARTHUR    MOCLDY    42  38  85 CALM      30.28F
GALVESTON      PTCLDY    50  37  61 CALM      30.28F
ANGLETON       PTCLDY    44  40  85 CALM      30.28F
BAY CITY       PTCLDY    44  41  88 CALM      30.27F
$$

TEXAS COASTAL BEND, RIO GRANDE PLAINS DEEP SOUTH TEXAS

CITY           SKY/WX    TMP DP  RH WIND       PRES   REMARKS
VICTORIA       PTCLDY    45  38  76 SW3       30.27F
BEEVILLE       CLOUDY    46  40  78 W3        30.27F
ROCKPORT       CLOUDY    51  45  79 NW6       30.27F
PORT ARANSAS   NOT AVBL
PORT LAVACA    CLOUDY    45  42  88 W3        30.28S
CORPUS CHRISTI CLOUDY    50  47  89 NW7       30.27F
KINGSVILLE NAS CLOUDY    50  48  93 NW5       30.26F
COTULLA        MOCLDY    46  41  82 CALM      30.28F
LAREDO         CLOUDY    48  41  76 MISG      30.28F
BROWNSVILLE    CLOUDY    51  43  74 NW13      30.24F
PORT ISABEL    CLOUDY    50  43  77 NW14      30.24F
HEBBRONVILLE   NOT AVBL
MCALLEN        CLOUDY    49  46  90 W5        30.27F
WESLACO        CLOUDY    48  44  86 N3        30.25F
FALFURRIAS     CLOUDY    50  47  89 CALM      30.27F
EDINBURG       CLOUDY    50  47  90 NW5       30.27F
$$




USA.gov is the U.S. government's official web portal to all federal, state and local government web resources and services.